Temp
-10 -10 -10 -10 -10 -10 -11 -11 -10 -10 -10 -10 -10 -10 -10 -9 -9 -9 -8 -9 -8 -8 -8 -8 -8 -9 -8 -8 -8 -8 -8 -8 -8 -8 -8 -8 -8 -8 -8 -8 -8 -8 -8
-10 -10 -10 -10 -10 -10 -10 -10 -11 -11 -10 -10 -10 -10 -9 -10 -10 -10 -10 -10 -9 -9 -9 -9 -9 -9 -8 -8 -8 -8 -8 -8 -8 -8 -8 -8 -8 -8 -8 -8 -8 -8 -8
-10 -10 -10 -10 -10 -10 -10 -10 -10 -10 -10 -10 -10 -10 -10 -10 -10 -10 -10 -10 -10 -10 -10 -9 -9 -9 -9 -9 -8 -8 -8 -8 -8 -8 -8 -8 -8 -8 -8 -8 -8 -8 -8
-10 -10 -10 -10 -10 -10 -10 -10 -10 -10 -10 -10 -10 -11 -10 -10 -10 -10 -10 -9 -10 -9 -9 -9 -9 -9 -9 -9 -9 -8 -8 -8 -8 -8 -8 -8 -8 -8 -8 -8 -8 -8 -8
-10 -10 -10 -10 -10 -10 -10 -10 -10 -10 -10 -10 -10 -10 -10 -11 -11 -11 -11 -10 -10 -10 -10 -9 -9 -9 -9 -9 -9 -9 -9 -9 -8 -8 -8 -8 -8 -8 -8 -8 -8 -8 -8
-10 -10 -10 -10 -10 -10 -10 -10 -10 -10 -10 -10 -10 -10 -10 -10 -10 -10 -10 -10 -10 -10 -10 -10 -10 -9 -9 -9 -9 -9 -9 -9 -9 -9 -9 -9 -9 -9 -9 -9 -9 -9 -9
-10 -10 -10 -10 -10 -10 -10 -10 -10 -10 -10 -10 -10 -10 -10 -10 -10 -10 -10 -10 -10 -10 -10 -10 -10 -10 -10 -10 -10 -9 -9 -9 -9 -9 -9 -9 -9 -9 -9 -9 -9 -9 -9
-10 -10 -10 -10 -10 -10 -10 -10 -10 -10 -10 -10 -10 -10 -10 -10 -10 -10 -10 -10 -10 -10 -10 -10 -10 -10 -10 -10 -10 -10 -9 -9 -9 -9 -9 -9 -9 -9 -9 -9 -9 -9 -9
-10 -10 -10 -10 -10 -10 -10 -10 -10 -10 -10 -10 -10 -10 -10 -10 -10 -10 -10 -10 -10 -10 -10 -10 -10 -10 -10 -10 -10 -10 -9 -9 -9 -9 -9 -9 -9 -9 -9 -9 -8 -8 -8
-10 -10 -10 -10 -10 -10 -10 -10 -10 -10 -10 -10 -10 -10 -10 -10 -10 -10 -10 -10 -10 -10 -10 -10 -10 -10 -10 -10 -10 -10 -10 -9 -9 -9 -9 -9 -9 -9 -8 -8 -8 -8 -8
-11 -10 -10 -10 -11 -10 -10 -10 -10 -10 -10 -10 -10 -10 -10 -10 -10 -10 -10 -10 -10 -10 -10 -10 -10 -10 -10 -10 -10 -10 -10 -10 -9 -9 -9 -9 -9 -9 -9 -9 -9 -9 -9
-11 -11 -11 -11 -11 -10 -10 -10 -11 -11 -11 -11 -11 -10 -10 -10 -10 -10 -11 -10 -10 -10 -10 -10 -10 -10 -10 -10 -10 -10 -10 -10 -10 -10 -9 -9 -9 -9 -9 -9 -9 -9 -9
-11 -11 -11 -11 -11 -11 -11 -10 -11 -11 -11 -11 -11 -11 -11 -10 -11 -10 -10 -10 -10 -10 -10 -10 -10 -10 -10 -10 -10 -10 -10 -10 -10 -10 -10 -10 -10 -10 -9 -9 -10 -10 -10
-11 -11 -11 -10 -10 -10 -10 -11 -11 -11 -11 -11 -11 -11 -11 -11 -11 -11 -11 -10 -10 -10 -10 -10 -10 -10 -10 -10 -10 -10 -10 -10 -10 -10 -10 -10 -10 -10 -10 -10 -10 -10 -10
-11 -11 -11 -10 -10 -10 -10 -11 -11 -11 -11 -11 -11 -11 -11 -11 -11 -11 -11 -11 -11 -10 -10 -10 -10 -10 -10 -10 -10 -10 -10 -10 -10 -10 -9 -9 -9 -9 -9 -9 -9 -9 -10
-11 -10 -10 -10 -10 -10 -10 -11 -11 -11 -11 -11 -11 -11 -11 -11 -11 -11 -11 -11 -10 -10 -11 -10 -10 -10 -10 -10 -10 -10 -10 -10 -10 -10 -10 -10 -9 -9 -9 -9 -10 -10 -10
-11 -11 -10 -10 -10 -10 -11 -11 -11 -11 -11 -11 -11 -11 -11 -11 -11 -11 -11 -11 -11 -11 -11 -10 -10 -10 -10 -10 -10 -10 -10 -10 -10 -10 -10 -10 -10 -10 -10 -10 -10 -10 -10
-10 -11 -11 -11 -11 -11 -11 -11 -11 -11 -11 -11 -11 -12 -11 -11 -11 -11 -11 -11 -11 -11 -11 -11 -11 -11 -10 -10 -10 -10 -10 -10 -10 -10 -10 -10 -10 -10 -10 -10 -10 -10 -10
-11 -11 -10 -10 -10 -10 -11 -11 -11 -11 -11 -11 -11 -11 -12 -12 -12 -11 -11 -11 -11 -11 -11 -11 -11 -11 -11 -11 -10 -10 -10 -10 -10 -10 -10 -10 -10 -10 -10 -10 -10 -10 -10
-10 -10 -11 -10 -10 -11 -11 -11 -11 -11 -11 -11 -11 -11 -12 -12 -12 -11 -11 -11 -12 -12 -12 -12 -12 -11 -11 -11 -11 -11 -11 -11 -11 -11 -11 -10 -10 -10 -10 -10 -10 -10 -10
-10 -10 -11 -11 -10 -10 -10 -11 -11 -11 -11 -11 -11 -11 -11 -12 -12 -11 -11 -11 -12 -12 -12 -12 -12 -12 -11 -11 -11 -11 -11 -11 -11 -11 -11 -11 -10 -10 -10 -10 -10 -10 -10
-11 -11 -11 -11 -11 -11 -10 -10 -11 -11 -11 -11 -11 -11 -11 -11 -12 -12 -12 -12 -12 -12 -12 -12 -11 -11 -11 -11 -11 -11 -11 -11 -12 -11 -11 -11 -11 -11 -10 -10 -10 -10 -10
-11 -11 -11 -11 -10 -11 -11 -11 -11 -11 -11 -11 -11 -11 -11 -11 -11 -11 -12 -12 -12 -12 -11 -11 -11 -11 -11 -11 -11 -11 -11 -11 -12 -11 -11 -11 -11 -11 -11 -11 -11 -11 -10
-11 -11 -11 -12 -12 -11 -12 -12 -12 -12 -11 -11 -11 -11 -11 -11 -11 -11 -11 -11 -11 -11 -11 -11 -11 -11 -11 -11 -11 -12 -12 -11 -12 -12 -12 -12 -12 -12 -12 -11 -11 -11 -11
-11 -12 -12 -12 -12 -13 -12 -12 -12 -12 -12 -12 -11 -11 -11 -11 -11 -11 -11 -11 -11 -12 -12 -12 -12 -11 -11 -11 -11 -11 -12 -11 -12 -11 -12 -12 -12 -12 -12 -12 -11 -11 -11
-12 -12 -13 -13 -13 -13 -13 -13 -13 -12 -12 -12 -12 -12 -11 -12 -12 -12 -12 -11 -11 -11 -12 -12 -12 -12 -12 -12 -11 -10 -11 -11 -12 -12 -12 -12 -12 -12 -12 -12 -12 -12 -12
Height
5848 5847 5846 5845 5844 5843 5843 5843 5844 5845 5846 5848 5849 5850 5850 5851 5852 5854 5853 5853 5856 5857 5858 5859 5861 5861 5862 5864 5866 5866 5868 5869 5870 5872 5871 5872 5873 5872 5874 5874 5876 5876 5877
5848 5847 5847 5847 5846 5845 5844 5844 5845 5846 5846 5847 5848 5850 5850 5852 5852 5854 5854 5854 5855 5856 5858 5858 5859 5860 5861 5862 5864 5865 5866 5868 5869 5870 5871 5871 5872 5872 5872 5874 5875 5876 5877
5848 5848 5847 5847 5847 5846 5845 5845 5845 5845 5846 5847 5847 5849 5850 5851 5852 5853 5853 5854 5855 5856 5857 5858 5859 5860 5860 5861 5863 5864 5864 5866 5867 5869 5870 5871 5871 5871 5871 5872 5872 5874 5875
5848 5847 5847 5847 5846 5847 5846 5846 5846 5846 5846 5847 5848 5849 5849 5850 5851 5852 5853 5854 5855 5856 5856 5857 5858 5859 5860 5861 5861 5862 5862 5864 5865 5867 5868 5868 5869 5869 5869 5870 5871 5872 5873
5847 5847 5846 5847 5846 5846 5846 5846 5846 5846 5846 5847 5847 5848 5849 5849 5850 5851 5852 5853 5854 5854 5855 5856 5857 5858 5859 5860 5860 5861 5862 5862 5862 5864 5865 5866 5867 5867 5867 5867 5869 5870 5870
5847 5846 5845 5845 5845 5845 5845 5845 5845 5846 5846 5846 5847 5848 5848 5849 5849 5850 5850 5852 5852 5853 5854 5855 5856 5857 5858 5859 5859 5860 5860 5861 5861 5862 5863 5864 5864 5866 5866 5866 5868 5868 5869
5846 5845 5844 5844 5844 5844 5844 5844 5844 5844 5844 5845 5845 5846 5847 5848 5848 5848 5850 5850 5851 5853 5853 5855 5856 5857 5858 5858 5858 5859 5859 5860 5860 5861 5861 5862 5863 5864 5865 5865 5866 5867 5869
5845 5845 5844 5844 5843 5842 5842 5842 5843 5843 5843 5843 5843 5844 5845 5845 5846 5847 5848 5848 5849 5850 5852 5853 5854 5855 5856 5856 5857 5857 5857 5858 5859 5859 5860 5861 5861 5862 5863 5863 5864 5865 5867
5843 5843 5842 5842 5841 5841 5841 5841 5840 5841 5841 5841 5841 5842 5842 5843 5844 5844 5845 5846 5847 5848 5849 5849 5850 5851 5852 5853 5854 5855 5855 5856 5856 5857 5857 5858 5859 5860 5860 5861 5862 5863 5865
5842 5841 5840 5839 5839 5838 5838 5839 5839 5838 5838 5838 5838 5839 5840 5840 5841 5842 5842 5843 5844 5845 5846 5846 5847 5848 5849 5849 5850 5851 5852 5852 5853 5854 5854 5855 5856 5857 5858 5859 5860 5861 5862
5838 5838 5837 5836 5835 5835 5835 5835 5835 5836 5836 5836 5835 5835 5836 5837 5837 5838 5838 5839 5840 5841 5842 5842 5843 5844 5845 5846 5847 5848 5848 5849 5849 5850 5851 5852 5853 5854 5854 5856 5857 5858 5858
5832 5832 5832 5832 5831 5831 5831 5831 5831 5831 5831 5832 5832 5832 5832 5833 5833 5834 5834 5834 5835 5836 5837 5838 5838 5839 5840 5841 5842 5842 5843 5844 5845 5846 5846 5847 5848 5849 5850 5852 5852 5854 5855
5825 5824 5825 5825 5826 5827 5826 5827 5828 5827 5828 5828 5828 5828 5828 5828 5829 5829 5829 5829 5830 5831 5831 5832 5833 5834 5835 5836 5836 5837 5838 5839 5840 5841 5841 5842 5843 5844 5845 5846 5847 5848 5849
5817 5817 5819 5820 5820 5821 5820 5821 5821 5822 5822 5823 5823 5824 5823 5824 5824 5824 5824 5824 5824 5825 5826 5826 5827 5828 5828 5829 5830 5831 5832 5832 5833 5834 5835 5836 5838 5839 5839 5840 5841 5842 5842
5814 5814 5814 5815 5816 5816 5816 5814 5815 5815 5816 5816 5817 5818 5817 5818 5818 5817 5818 5818 5819 5819 5819 5820 5821 5821 5822 5823 5824 5824 5825 5826 5826 5827 5828 5829 5831 5831 5832 5833 5833 5834 5836
5809 5808 5807 5808 5808 5809 5809 5808 5808 5808 5809 5809 5810 5810 5810 5810 5811 5811 5811 5811 5812 5812 5813 5813 5814 5814 5815 5816 5816 5817 5818 5818 5819 5820 5821 5821 5822 5823 5824 5824 5825 5826 5827
5802 5801 5801 5800 5799 5800 5801 5801 5801 5801 5801 5802 5801 5802 5802 5802 5803 5802 5803 5804 5804 5804 5805 5805 5806 5807 5807 5808 5808 5810 5810 5811 5811 5812 5812 5813 5813 5814 5815 5815 5816 5817 5818
5794 5794 5794 5792 5791 5790 5791 5791 5792 5793 5794 5794 5794 5794 5794 5793 5793 5793 5794 5795 5795 5796 5796 5797 5798 5798 5798 5799 5800 5801 5802 5803 5803 5804 5805 5805 5805 5805 5806 5807 5807 5808 5809
5784 5785 5785 5785 5784 5782 5781 5781 5783 5783 5785 5785 5785 5786 5786 5785 5784 5784 5785 5785 5786 5787 5788 5789 5789 5789 5790 5790 5790 5791 5793 5793 5794 5795 5796 5797 5798 5798 5799 5798 5799 5799 5800
5775 5776 5776 5776 5775 5774 5773 5771 5773 5774 5774 5774 5774 5776 5775 5775 5775 5775 5775 5775 5775 5776 5778 5778 5778 5779 5781 5782 5783 5783 5783 5784 5785 5786 5787 5788 5789 5790 5790 5790 5790 5790 5790
5766 5765 5765 5765 5766 5765 5765 5764 5762 5762 5763 5764 5764 5764 5764 5765 5765 5765 5767 5766 5766 5766 5766 5766 5768 5769 5770 5772 5772 5773 5773 5774 5776 5777 5777 5778 5779 5780 5780 5781 5781 5781 5781
5755 5755 5756 5756 5755 5755 5755 5755 5756 5755 5753 5753 5752 5753 5755 5754 5754 5754 5755 5756 5758 5757 5756 5756 5756 5757 5758 5760 5760 5761 5763 5765 5766 5766 5767 5769 5769 5769 5770 5770 5771 5771 5772
5748 5746 5745 5744 5743 5743 5744 5744 5745 5745 5746 5744 5743 5742 5744 5744 5744 5743 5743 5743 5745 5746 5748 5749 5748 5748 5746 5747 5748 5749 5751 5753 5754 5754 5756 5757 5758 5759 5760 5760 5761 5761 5762
5737 5736 5735 5734 5734 5734 5733 5734 5735 5735 5734 5734 5733 5733 5733 5733 5733 5733 5733 5732 5734 5735 5735 5737 5737 5738 5736 5737 5734 5738 5736 5738 5740 5742 5743 5745 5745 5747 5749 5750 5750 5751 5752
5727 5726 5725 5725 5725 5723 5723 5723 5721 5721 5722 5723 5722 5721 5721 5721 5721 5720 5721 5722 5723 5723 5722 5724 5724 5724 5724 5723 5724 5724 5725 5726 5728 5729 5731 5732 5733 5734 5737 5738 5739 5741 5742
5713 5711 5712 5712 5710 5710 5711 5710 5709 5708 5708 5707 5707 5707 5707 5705 5706 5707 5707 5706 5708 5710 5711 5710 5711 5711 5711 5712 5712 5709 5711 5712 5714 5715 5717 5719 5720 5722 5724 5726 5727 5729 5730
Wind_Speed
2 3 6 8 6 4 4 8 11 12 12 11 12 10 10 13 17 20 18 17 18 20 19 16 14 14 15 14 14 15 15 14 13 12 10 10 8 8 8 9 8 7 7
3 1 1 3 5 3 3 4 7 10 12 12 13 13 13 11 11 15 19 19 19 18 16 17 13 13 14 15 16 16 15 15 14 14 12 12 11 10 9 9 8 8 9
5 4 3 2 1 0 1 2 4 7 9 10 12 13 15 15 14 14 16 20 16 14 16 17 16 17 16 16 16 16 16 16 15 15 14 13 13 12 12 11 9 9 8
8 8 7 6 6 5 4 3 4 6 7 8 8 9 9 11 15 17 18 17 15 15 16 16 17 18 17 18 16 17 17 17 16 16 15 15 16 15 14 13 12 12 12
8 9 10 9 9 9 8 7 7 6 6 6 8 9 10 11 11 13 16 17 18 18 18 18 18 18 18 19 17 17 17 17 17 17 17 16 17 16 14 14 14 14 13
6 8 9 12 12 12 12 12 12 11 11 10 10 9 10 11 11 12 13 14 14 16 17 17 17 18 19 18 17 17 16 16 16 16 15 14 16 15 14 14 13 11 11
7 6 7 9 11 14 15 14 15 16 14 14 14 13 13 13 13 13 14 15 15 16 16 16 15 15 16 16 16 17 16 16 15 15 14 14 14 13 12 12 12 11 10
9 10 8 8 9 10 14 16 17 17 18 18 18 17 16 16 15 16 16 16 16 16 16 16 15 15 16 16 16 16 16 15 16 15 15 15 15 15 14 13 12 11 9
13 12 12 12 12 11 11 13 16 18 20 20 20 20 20 20 19 19 19 19 19 20 20 20 19 19 19 19 17 16 16 17 18 19 18 18 17 16 14 14 13 12 11
18 17 16 16 15 14 14 14 13 15 17 20 21 22 23 22 23 24 24 24 24 24 23 23 23 22 21 20 19 18 18 17 17 18 18 17 18 17 16 15 15 16 16
24 22 22 21 21 19 17 17 16 16 16 16 18 20 21 22 24 25 27 28 28 28 28 27 26 25 25 25 25 24 22 22 21 21 21 21 20 21 21 20 21 21 22
29 28 27 25 26 25 23 22 20 19 18 19 19 20 19 20 21 22 25 27 29 30 31 31 30 29 28 28 28 28 27 27 26 26 25 25 26 26 26 25 24 24 25
31 32 32 30 28 28 29 29 26 24 23 23 22 23 22 22 23 24 25 24 26 28 30 32 33 34 33 32 31 31 30 30 29 29 29 29 29 29 29 30 31 31 31
31 32 31 30 28 28 31 33 32 30 29 28 28 27 27 26 26 27 27 27 28 28 28 29 32 34 35 35 35 35 34 33 32 32 33 33 33 33 34 34 34 35 35
28 28 29 29 29 29 29 32 32 34 33 33 32 31 32 31 31 31 31 31 30 29 29 30 31 32 33 35 36 36 36 36 36 36 37 37 37 38 38 38 39 40 39
29 30 31 30 32 31 28 27 27 28 30 32 33 34 36 35 35 36 35 35 34 34 33 32 32 33 34 35 35 35 36 36 37 38 39 39 39 40 40 40 41 41 41
31 31 32 34 35 34 33 32 29 28 28 27 29 31 33 35 36 37 38 38 38 37 36 36 36 35 35 36 36 37 36 36 37 38 38 38 37 38 38 39 40 41 42
35 34 33 34 37 38 38 37 35 34 31 28 29 29 30 33 34 36 37 38 40 40 40 39 39 38 37 36 36 37 38 39 40 40 40 39 39 39 39 39 40 40 39
39 36 34 33 34 38 40 39 39 38 36 35 32 30 32 35 37 38 37 38 39 40 40 40 41 41 39 38 38 39 40 41 42 43 42 40 40 40 40 41 41 41 39
42 38 35 35 36 38 41 42 40 40 40 40 39 35 36 38 41 41 39 39 39 39 38 39 40 43 42 41 40 41 41 42 42 42 43 43 41 42 41 41 41 41 42
38 39 39 36 33 34 37 39 41 41 42 42 43 42 40 40 42 44 41 42 40 39 40 41 42 43 44 44 45 45 46 44 44 45 45 44 43 42 41 41 40 40 40
39 37 39 40 41 39 38 41 41 42 42 42 44 45 44 44 43 44 43 44 43 46 46 45 44 44 45 46 48 50 50 49 47 48 48 47 46 44 42 41 42 41 41
44 43 42 42 45 44 40 39 41 41 42 46 45 46 44 48 48 49 50 50 48 49 49 49 48 47 46 46 47 48 49 50 51 52 50 49 49 48 45 44 44 44 43
47 46 43 41 40 41 43 38 37 38 42 43 42 43 45 49 52 54 54 53 52 52 52 51 52 52 51 49 50 48 50 50 51 52 53 52 52 50 48 47 46 45 45
47 44 44 47 48 45 46 48 49 49 45 48 46 45 46 47 50 52 54 56 55 53 53 54 55 56 57 57 54 53 53 52 50 51 50 53 54 54 52 51 51 50 49
45 45 52 54 55 55 54 53 54 53 52 51 52 53 52 50 51 53 55 56 56 56 57 58 59 60 62 62 60 59 55 54 54 54 53 54 56 56 55 54 54 53 52
Wind_Direction
36 32 28 35 51 90 165 185 191 201 204 203 210 209 205 199 200 207 197 195 201 198 198 209 210 213 211 216 222 225 230 236 236 241 240 239 229 230 238 244 243 247 250
292 296 17 28 31 42 105 184 202 209 215 213 208 212 215 211 201 216 205 194 199 201 211 212 209 214 213 214 221 231 235 239 235 245 248 242 242 245 244 249 252 249 254
263 267 255 241 244 90 71 201 204 214 221 231 233 224 219 213 204 210 212 206 216 215 220 221 230 232 227 228 228 233 238 244 244 244 241 243 245 241 240 244 248 253 255
257 253 254 244 238 225 219 220 217 219 221 221 228 236 235 224 215 211 210 210 214 217 222 222 230 236 234 234 232 232 231 235 239 239 235 233 237 236 236 238 242 246 246
276 260 248 249 248 241 231 227 225 229 228 221 227 229 230 234 234 230 226 220 215 215 222 222 225 229 230 234 229 233 229 227 228 230 229 229 232 233 227 231 232 232 234
311 281 265 248 243 244 243 237 235 228 231 235 234 232 231 231 237 238 238 234 230 227 228 227 224 225 225 224 221 222 224 226 224 223 221 220 227 228 226 225 227 226 227
306 301 291 275 253 243 241 240 241 241 235 237 241 239 236 233 232 236 239 241 238 235 233 237 236 235 235 234 231 228 225 226 228 228 226 222 230 232 230 231 231 229 229
299 296 294 289 281 267 254 246 241 243 243 240 239 242 243 241 237 237 237 235 237 235 234 236 239 242 242 241 243 242 241 241 241 240 237 235 234 235 234 236 233 231 221
289 289 289 285 281 278 273 265 257 249 244 242 242 242 243 247 247 244 242 241 239 238 237 239 245 247 249 248 245 245 244 244 243 243 242 240 239 237 233 232 225 218 217
282 285 286 286 282 278 277 273 269 263 257 252 247 245 245 245 246 247 247 246 243 244 247 247 246 246 243 240 242 245 247 247 246 246 243 243 239 239 239 238 236 235 233
281 278 280 279 277 275 274 273 273 269 270 267 264 259 258 256 254 251 249 248 247 247 246 249 251 250 248 246 247 250 251 251 253 251 246 243 243 243 243 241 243 245 248
279 278 276 272 273 273 272 272 272 271 269 266 266 267 265 263 263 263 260 256 252 251 251 251 251 253 254 255 256 256 256 256 254 251 248 247 248 248 249 248 248 253 257
275 274 274 273 271 272 274 271 270 270 270 271 271 271 271 272 272 270 268 267 266 261 257 256 255 254 254 255 257 259 260 260 259 258 256 252 251 252 253 254 255 256 257
277 274 272 271 270 273 272 271 269 269 269 268 268 270 273 272 273 272 272 272 270 267 267 264 261 259 259 259 260 260 261 262 263 263 262 260 259 258 257 256 257 257 258
284 284 279 273 274 278 281 276 269 268 270 272 271 271 271 271 271 272 272 271 270 270 268 268 267 265 264 264 264 264 264 263 263 262 263 264 265 266 266 265 263 262 261
281 280 278 277 274 276 280 280 274 271 272 273 272 270 269 270 270 270 271 270 271 270 269 269 270 269 268 268 268 268 268 268 268 267 267 266 266 266 265 265 265 264 262
275 274 275 274 275 277 276 277 275 269 268 271 270 270 271 270 270 270 270 270 269 269 269 269 269 271 271 270 269 269 269 269 267 266 266 267 267 268 268 267 267 266 265
283 282 276 270 270 270 270 270 271 270 269 267 264 264 266 268 268 268 268 268 267 268 268 269 269 269 271 273 273 272 270 268 267 267 268 269 269 270 271 270 270 269 268
281 277 276 273 271 272 270 267 266 267 267 268 264 260 260 264 264 265 267 266 265 265 267 269 270 270 269 271 272 271 270 268 266 266 267 267 267 268 269 270 271 270 269
280 278 273 272 271 268 268 270 268 267 266 264 263 260 258 260 262 263 264 264 263 263 266 268 268 269 269 271 270 269 269 266 264 264 264 265 268 270 271 272 272 271 269
273 274 272 266 263 268 265 266 266 264 263 263 263 258 255 258 261 263 264 263 262 261 261 262 265 267 268 270 270 269 267 268 267 266 265 265 267 269 271 274 273 271 269
271 267 270 268 268 264 262 262 264 266 264 262 261 262 260 257 257 261 261 261 260 260 258 259 261 264 267 269 269 271 271 269 269 267 266 265 266 267 270 272 270 267 266
272 270 268 264 266 270 262 258 258 262 267 266 265 265 263 261 259 260 261 260 259 261 263 263 264 265 265 266 268 270 272 272 268 268 267 264 265 266 268 271 269 266 264
270 268 265 262 262 261 261 252 253 264 268 266 266 268 268 266 265 265 264 265 265 266 265 264 265 266 266 266 265 267 267 267 269 269 268 265 264 266 269 272 269 265 264
262 263 267 269 270 264 259 263 266 269 268 266 262 259 261 265 269 269 270 271 268 266 266 266 265 266 265 265 266 265 266 268 268 269 267 265 267 269 271 273 271 267 265
242 259 273 273 270 267 268 268 266 267 268 266 264 264 261 257 258 261 265 266 267 268 269 269 267 267 267 266 265 263 263 263 263 264 265 264 267 269 270 271 270 267 266